sat.trackr.live / text

‹ back to catalog

STARLINK-5470

NORAD 54776 · 2022-175U

PAYLOAD ACTIVE UNKNOWN

§ Identity

Operator
Country
US
Launch date
2022-12-17
Launch site
AFETR
Launch vehicle
Mass (kg)
RCS (m²)

Purposes: comms

External: N2YO · Heavens-Above · Gunter

§ Orbital elements

Epoch: 2026-05-25T04:33:51.056928Z

Period
95.44 min
Inclination
53.2126°
Eccentricity
0.0001312
Mean motion
15.08860048 rev/d
Perigee alt
538.8 km
Apogee alt
540.6 km
Semi-major
6,917.8 km
B*
-2.0873e-4
RAAN
60.2991°
Arg perigee
96.5450°
Mean anomaly
263.5692°
Rev number
19,147

§ Raw data

STARLINK-54701 54776U 22175U   26145.19017427 -.00003610  00000+0 -20873-3 0  99992 54776  53.2126  60.2991 0001312  96.5450 263.5692 15.08860048191478

JSON: /api/v1/satellites/54776 · /tle

For live sub-satellite position, see the globe view (requires WebGL).

§ Visibility from observer

Set your observer location to see the next 7 days of passes ≥ 10°. The values pass through the URL so the page stays shareable.

No JS? Fill the form by hand. The geolocation button needs JavaScript.